DELTA 1 DEB, 7958

Orbit data source: Space-Track

DELTA 1 DEB, 7958 is space debris in SSO originally from a launch on Sun, 23 Jul 1972 UTC launched from the Air Force Western Test Range (AFWTR). Debris objects in space refer to the collection of defunct objects orbiting the Earth. Examples of debris include non-operational satellites, rocket bodies, and fragments generated from explosions, collisions, or faulty payload assembly.

Loading next visibility...
Identifier
7958, 1972-058CN
Orbit
SSO
Country
Flag of USUS
Related business
Manufacturer
Unknown
Mission
Spacecraft
Bus & Motor
Unknown
Mass
Unknown
Launch date (UTC)
1972-07-23 (54 years ago)
Launch vehicle
Unknown
Launch site
Air Force Western Test Range (AFWTR)
Object type
Payload
Rocket body
Debris
Shape & HBR
Unknown shape, 0.2 m
Radar Cross Section
Medium (>0.1 m² and <1 m²)

Expand to show TLE details & history
Last TLE update: 1 day ago

TLE from 1 day ago
0 DELTA 1 DEB
1 07958U 72058CN  26149.52284667  .00000897  00000-0  40485-3 0  9991
2 07958  97.6582 355.7262 0297213 175.9280 184.4414 14.03134385703653
Epoch: 2026-05-29T12:32Z
TLE epoch observation values (Epoch: 2026-05-29T12:32:53.952Z)
Latitude
-0.00006°
Longitude
-79.5506°
Altitude
1,101.129 km
Speed
7.193 km/s
True Right ascension
23h 42m 54s
True Declination
0° 00' 00"
Sunlit
Object was in daylight at epoch
Visualization orbit readout
Latitude
Unknown
Longitude
Unknown
Altitude
Unknown
Speed
Unknown
Apparent Right ascension
Unknown
Apparent Declination
Unknown
Sunlit
N/A
Visualization observer readout
Local Sidereal Time
00:56:15
Azimuth
Unknown
Elevation
Unknown
Doppler factor
Unknown
Orbital elements
Apogee altitude
1,095.816 km
Perigee altitude
664.368 km
Semi-major axis
7,258.229 km
Eccentricity
0.02972
Inclination
97.6582°
RAAN
355.7262°
Arg. of periapsis
175.928°
True anomaly
184.18709°
Mean anomaly
184.4414°
Eccentric anomaly
184.31332°
Mean motion
3.50992 °/min
Orbital period
102.57 mins
BSTAR
0.00040485
Loading maneuver chart data...
Computing Atmospheric mass density...
Loading historical data...
Loading historical data...
Loading historical data...
Loading historical data...
Loading historical data...
Loading historical data...
Loading historical data...

Documentation

Showing up to 5 results
|